Find Globalstar M055

NORAD ID: 25910 Int'l Des: 1999-049 Owner: GLOBT Country: US Constellation: globalstar operational
LEOCIRCULAR

当前视图

正在加载3D地球...

About Globalstar M055

Globalstar M055 (NORAD 25910) is a globalstar constellation satellite launched Sep 22, 1999 by GLOBT of US. It operates in LEO, CIRCULAR orbit with a mass of 450.00 kg.

关于 Globalstar M055

正在加载描述...

即将过境

Passes for default location (London). Set your location on the main map for personalized predictions.

高度历史

Loading altitude history...

两行轨道根数

1 25910U 99049D 26194.63422918 -.00000080 00000-0 11960-3 0 9994
2 25910 52.0040 318.8008 0006711 219.3551 140.6813 12.29446154216436
Epoch: Jul 13, 2026 • Age: 23 hours

当前状态

高度 1552.2 km
远地点 / 近地点 N/A
速度 7.09 km/s
星下点 -21.00°S, 13.94°E
发射日期 Sep 22, 1999
运行时间 26.8 years
类型 communications

技术详情

分类 Payload
质量 450.00 kg
干质量 380.00 kg
总质量 450.00 kg
长度 1.50 m
直径 0.60 m
跨度 12.00 m
形状 Box + 2 Pan
制造商 LOR
平台类型 LS-400
阶段状态 In Orbit
所有者/国家 GLOBT/US

Most Searched